Location: Chiroubles
(46.1812°N, 4.6660°E)
Time: 23:24:32
(UTC+00:00)

Envisat - Visible Passes

Search period start: 19 October 2020 00:00
Search period end: 29 October 2020 00:00
Orbit: 764 x 766 km, 98.1° (Epoch: 19 October)

Date Brightness Start Highest point End Pass type
(mag) Time Alt. Az. Time Alt. Az. Time Alt. Az.
19 Oct 4.4 05:18:17 10° NNE 05:23:09 45° E 05:28:01 10° S visible
19 Oct 6.3 18:17:00 10° WSW 18:19:50 15° W 18:22:41 10° NW visible
20 Oct 5.8 04:42:12 10° NE 04:46:05 22° E 04:49:56 10° SE visible
20 Oct 5.2 17:38:11 10° SSW 17:42:39 31° W 17:47:10 10° NNW visible
22 Oct 4.8 05:07:03 10° NNE 05:11:44 36° E 05:16:23 10° SSE visible
22 Oct 6.0 18:04:49 10° SW 18:08:20 19° W 18:11:52 10° NW visible
23 Oct 6.1 04:31:15 10° NE 04:34:35 17° E 04:37:54 10° SE visible
23 Oct 4.7 17:26:29 10° SSW 17:31:12 38° W 17:35:58 10° NNW visible
24 Oct 3.7 05:32:14 10° NNE 05:37:17 61° E 05:42:18 10° S visible
24 Oct 6.6 18:33:03 10° W 18:34:07 11° W 18:35:10 10° WNW visible
25 Oct 5.2 04:55:52 10° NE 05:00:17 29° E 05:04:40 10° SSE visible
25 Oct 5.6 17:52:50 10° SW 17:56:50 23° W 18:00:52 10° NW visible
26 Oct 6.3 04:20:31 10° ENE 04:23:05 14° E 04:25:37 10° ESE visible
26 Oct 4.2 17:14:53 10° S 17:19:47 48° W 17:24:43 10° NNW visible
27 Oct 4.2 05:20:56 10° NNE 05:25:53 48° E 05:30:46 10° S visible
27 Oct 6.3 18:20:04 10° WSW 18:22:35 14° W 18:25:06 10° WNW visible
28 Oct 5.6 04:44:46 10° NE 04:48:49 23° E 04:52:50 10° SE visible
28 Oct 5.2 17:41:00 10° SSW 17:45:22 29° W 17:49:46 10° NW visible
